When you browse on this site, cookies collect data to enhance your experience and personalize the content and advertising you see.
Visit our Privacy Policy to learn more. By continuing to use the site, you agree to this use of cookies and data.
EN

Hourly Weather Godziecin

Today, 21 September, Monday

Time Temperature Precipitation Wind Pressure Humidity
00:00 +13°C° 0 mm 2 mps 749 mmHg 78%
01:00 +13°C° 0 mm 2 mps 749 mmHg 83%
02:00 +13°C° 0 mm 2 mps 749 mmHg 83%
03:00 +12°C° 0 mm 2 mps 749 mmHg 84%
04:00 +12°C° 0 mm 1 mps 749 mmHg 84%
05:00 +13°C° 0 mm 1 mps 749 mmHg 82%
06:00 +13°C° 0 mm 2 mps 749 mmHg 79%
07:00 +14°C° 0 mm 2 mps 749 mmHg 75%
08:00 +16°C° 0 mm 2 mps 749 mmHg 67%
09:00 +18°C° 0 mm 2 mps 749 mmHg 59%
10:00 +20°C° 0 mm 2 mps 749 mmHg 51%
11:00 +23°C° 0 mm 2 mps 749 mmHg 46%
12:00 +24°C° 0 mm 2 mps 749 mmHg 42%
13:00 +25°C° 0 mm 2 mps 749 mmHg 38%
14:00 +25°C° 0 mm 2 mps 749 mmHg 39%
15:00 +25°C° 0 mm 2 mps 748 mmHg 40%
16:00 +25°C° 0 mm 2 mps 748 mmHg 41%
17:00 +23°C° 0 mm 2 mps 748 mmHg 45%
18:00 +20°C° 0 mm 2 mps 748 mmHg 49%
19:00 +19°C° 0 mm 2 mps 748 mmHg 52%
20:00 +18°C° 0 mm 2 mps 748 mmHg 56%
21:00 +17°C° 0 mm 2 mps 748 mmHg 60%
22:00 +17°C° 0 mm 2 mps 748 mmHg 65%
23:00 +16°C° 0 mm 2 mps 747 mmHg 66%

Tomorrow, 22 September, Tuesday

Time Temperature Precipitation Wind Pressure Humidity
00:00 +16°C° 0 mm 2 mps 747 mmHg 67%
01:00 +16°C° 0 mm 2 mps 747 mmHg 68%
02:00 +15°C° 0 mm 2 mps 747 mmHg 68%
03:00 +14°C° 0 mm 3 mps 746 mmHg 67%
04:00 +14°C° 0 mm 3 mps 746 mmHg 66%
05:00 +14°C° 0 mm 3 mps 746 mmHg 64%
06:00 +16°C° 0 mm 3 mps 746 mmHg 63%
07:00 +16°C° 0 mm 3 mps 746 mmHg 61%
08:00 +18°C° 0 mm 4 mps 746 mmHg 54%
09:00 +21°C° 0 mm 4 mps 746 mmHg 47%
10:00 +23°C° 0 mm 5 mps 746 mmHg 41%
11:00 +25°C° 0 mm 5 mps 745 mmHg 39%
12:00 +26°C° 0 mm 5 mps 745 mmHg 37%
13:00 +27°C° 0 mm 6 mps 745 mmHg 36%
14:00 +27°C° 0 mm 5 mps 744 mmHg 39%
15:00 +26°C° 0 mm 4 mps 744 mmHg 42%
16:00 +26°C° 0 mm 4 mps 744 mmHg 46%
17:00 +24°C° 0 mm 3 mps 744 mmHg 49%
18:00 +21°C° 0 mm 3 mps 743 mmHg 53%
19:00 +20°C° 0 mm 3 mps 743 mmHg 57%
20:00 +19°C° 0 mm 3 mps 743 mmHg 59%
21:00 +19°C° 0 mm 3 mps 743 mmHg 60%
22:00 +18°C° 0 mm 2 mps 743 mmHg 62%
23:00 +18°C° 0 mm 2 mps 742 mmHg 62%

Day after tomorrow, 23 September, Wednesday

Time Temperature Precipitation Wind Pressure Humidity
00:00 +17°C° 0 mm 2 mps 742 mmHg 62%
01:00 +17°C° 0 mm 2 mps 742 mmHg 62%
02:00 +17°C° 0 mm 2 mps 742 mmHg 62%
03:00 +16°C° 0 mm 3 mps 741 mmHg 62%
04:00 +16°C° 0 mm 3 mps 741 mmHg 62%
05:00 +16°C° 0 mm 3 mps 741 mmHg 62%
06:00 +16°C° 0 mm 3 mps 741 mmHg 62%
07:00 +17°C° 0 mm 3 mps 741 mmHg 62%
08:00 +19°C° 0 mm 3 mps 741 mmHg 58%
09:00 +21°C° 0 mm 3 mps 741 mmHg 54%
10:00 +23°C° 0 mm 4 mps 741 mmHg 50%
11:00 +25°C° 0 mm 4 mps 741 mmHg 50%
12:00 +25°C° 0 mm 4 mps 740 mmHg 49%
13:00 +26°C° 0 mm 4 mps 740 mmHg 48%
14:00 +26°C° 0 mm 3 mps 740 mmHg 50%
15:00 +26°C° 0 mm 3 mps 740 mmHg 52%
16:00 +25°C° 0 mm 2 mps 740 mmHg 53%
17:00 +24°C° 0 mm 2 mps 740 mmHg 59%
18:00 +21°C° 0 mm 2 mps 740 mmHg 65%
19:00 +20°C° 0 mm 2 mps 740 mmHg 71%
20:00 +19°C° 0.1 mm 2 mps 740 mmHg 73%
21:00 +19°C° 0.1 mm 2 mps 740 mmHg 75%
22:00 +18°C° 0.1 mm 2 mps 740 mmHg 77%
23:00 +18°C° 0 mm 2 mps 740 mmHg 78%

24 September, Thursday

Time Temperature Precipitation Wind Pressure Humidity
00:00 +18°C° 0 mm 2 mps 741 mmHg 79%
01:00 +17°C° 0 mm 2 mps 741 mmHg 80%
02:00 +17°C° 0 mm 2 mps 741 mmHg 81%
03:00 +18°C° 0 mm 1 mps 741 mmHg 82%
04:00 +16°C° 0 mm 1 mps 741 mmHg 82%
05:00 +18°C° 0 mm 1 mps 741 mmHg 81%
06:00 +17°C° 0 mm 2 mps 741 mmHg 80%
07:00 +17°C° 0 mm 2 mps 741 mmHg 79%
08:00 +19°C° 0 mm 2 mps 742 mmHg 71%
09:00 +21°C° 0 mm 2 mps 742 mmHg 63%
10:00 +24°C° 0 mm 2 mps 742 mmHg 55%
11:00 +25°C° 0 mm 2 mps 742 mmHg 52%
12:00 +26°C° 0 mm 3 mps 742 mmHg 49%
13:00 +27°C° 0 mm 3 mps 742 mmHg 46%
14:00 +26°C° 0 mm 3 mps 742 mmHg 47%
15:00 +26°C° 0 mm 3 mps 742 mmHg 48%
16:00 +26°C° 0 mm 3 mps 742 mmHg 49%
17:00 +24°C° 0 mm 3 mps 742 mmHg 55%
18:00 +21°C° 0 mm 2 mps 742 mmHg 61%
19:00 +20°C° 0 mm 2 mps 742 mmHg 67%
20:00 +19°C° 0 mm 2 mps 742 mmHg 68%
21:00 +19°C° 0 mm 2 mps 742 mmHg 69%
22:00 +18°C° 0 mm 2 mps 742 mmHg 71%
23:00 +18°C° 0 mm 2 mps 741 mmHg 72%

25 September, Friday

Time Temperature Precipitation Wind Pressure Humidity
00:00 +17°C° 0 mm 2 mps 741 mmHg 74%
01:00 +17°C° 0 mm 2 mps 740 mmHg 75%
02:00 +16°C° 0 mm 2 mps 740 mmHg 78%
03:00 +16°C° 0 mm 2 mps 739 mmHg 80%
04:00 +16°C° 0 mm 3 mps 739 mmHg 83%
05:00 +16°C° 0 mm 3 mps 738 mmHg 81%
06:00 +17°C° 0 mm 4 mps 737 mmHg 79%
07:00 +17°C° 0 mm 4 mps 737 mmHg 77%
08:00 +19°C° 0 mm 5 mps 736 mmHg 70%
09:00 +21°C° 0 mm 6 mps 736 mmHg 64%
10:00 +23°C° 0 mm 7 mps 735 mmHg 57%
11:00 +23°C° 0 mm 6 mps 735 mmHg 58%
12:00 +23°C° 0 mm 6 mps 734 mmHg 58%
13:00 +23°C° 0 mm 5 mps 734 mmHg 59%
14:00 +22°C° 0.2 mm 5 mps 733 mmHg 62%
15:00 +22°C° 0.2 mm 4 mps 733 mmHg 65%
16:00 +21°C° 0.2 mm 3 mps 733 mmHg 68%
17:00 +19°C° 1.3 mm 5 mps 733 mmHg 75%
18:00 +16°C° 1.3 mm 7 mps 733 mmHg 82%
19:00 +15°C° 1.3 mm 9 mps 733 mmHg 89%
20:00 +13°C° 1.3 mm 9 mps 734 mmHg 88%
21:00 +12°C° 1.3 mm 9 mps 734 mmHg 87%
22:00 +12°C° 1.3 mm 9 mps 735 mmHg 87%
23:00 +11°C° 0.5 mm 7 mps 735 mmHg 86%

26 September, Saturday

Time Temperature Precipitation Wind Pressure Humidity
00:00 +11°C° 0.5 mm 6 mps 736 mmHg 86%
01:00 +12°C° 0.5 mm 5 mps 737 mmHg 86%
02:00 +11°C° 0 mm 4 mps 737 mmHg 86%
03:00 +11°C° 0 mm 4 mps 737 mmHg 87%
04:00 +11°C° 0 mm 4 mps 738 mmHg 87%
05:00 +11°C° 0 mm 3 mps 738 mmHg 86%
06:00 +11°C° 0 mm 3 mps 738 mmHg 85%
07:00 +11°C° 0 mm 3 mps 739 mmHg 84%
08:00 +11°C° 0 mm 3 mps 739 mmHg 80%
09:00 +13°C° 0 mm 2 mps 740 mmHg 75%
10:00 +13°C° 0 mm 2 mps 740 mmHg 71%
11:00 +14°C° 0 mm 2 mps 740 mmHg 65%
12:00 +15°C° 0 mm 2 mps 740 mmHg 60%
13:00 +15°C° 0 mm 2 mps 740 mmHg 55%
14:00 +15°C° 0 mm 2 mps 740 mmHg 58%
15:00 +14°C° 0 mm 2 mps 739 mmHg 61%
16:00 +14°C° 0 mm 2 mps 739 mmHg 65%
17:00 +12°C° 0.6 mm 3 mps 739 mmHg 70%
18:00 +11°C° 0.6 mm 3 mps 739 mmHg 76%
19:00 +11°C° 0.6 mm 4 mps 738 mmHg 82%
20:00 +9°C° 2.1 mm 5 mps 738 mmHg 84%
21:00 +9°C° 2.1 mm 6 mps 738 mmHg 87%
22:00 +8°C° 2.1 mm 7 mps 737 mmHg 89%
23:00 +7°C° 3.9 mm 8 mps 737 mmHg 90%
Show more